Temperature
19 19 19 19 18 18 20 20 20 20 20 20 20 19 18 18 18 18 18 18 18 18 18 18 18 18 18 18 18 19 19 19 19 19 19 19 19 19 19 19 19 19 19 19 19 19 19 19 19
19 19 19 19 18 19 20 20 20 20 20 20 19 19 18 18 18 18 18 18 18 18 18 18 18 18 18 18 18 18 18 18 18 18 18 19 19 19 19 19 19 19 19 19 19 19 19 19 19
19 19 19 17 19 19 20 20 20 20 20 20 19 18 18 18 18 18 18 18 18 18 18 18 18 18 18 18 18 18 18 18 18 18 18 18 18 18 18 18 19 19 19 19 19 19 19 19 18
19 19 18 18 20 20 20 20 20 20 21 20 19 18 18 18 18 18 18 18 18 18 18 18 18 18 17 17 17 17 17 17 17 17 18 18 18 18 18 18 18 18 18 18 18 18 18 18 18
20 19 18 19 20 20 19 20 20 20 20 19 19 17 18 18 18 18 18 18 18 18 18 18 18 17 17 17 17 17 17 17 17 17 17 17 17 17 17 18 18 18 18 18 18 18 18 18 18
20 18 18 19 20 20 20 20 20 20 20 19 19 18 18 18 18 18 18 18 18 18 18 18 17 17 17 17 17 17 17 17 17 17 17 17 17 17 17 17 17 18 18 18 18 18 18 18 18
20 18 19 20 19 20 21 21 20 20 19 19 19 17 18 18 18 18 18 18 18 18 18 17 17 17 17 17 17 17 16 16 16 16 17 17 17 17 17 17 17 17 17 17 18 18 18 18 18
20 18 19 19 19 20 21 21 21 20 20 20 20 18 18 18 18 18 18 18 18 18 17 17 17 17 16 16 16 16 16 16 16 16 16 16 16 16 17 17 17 17 17 17 17 17 17 18 18
20 18 19 19 20 20 21 21 21 20 20 20 19 20 19 19 18 18 18 18 18 17 17 17 16 16 16 16 16 15 15 16 16 16 16 16 16 16 16 16 16 17 17 17 17 17 17 17 17
20 18 20 20 20 20 20 21 20 20 20 19 19 19 19 19 18 18 18 18 18 17 17 16 16 16 15 15 15 15 15 15 15 15 15 15 15 15 16 16 16 16 16 17 17 17 17 17 17
19 19 20 20 20 20 20 21 21 20 19 20 20 19 19 19 18 18 18 18 18 17 17 16 16 15 15 15 15 15 15 15 15 15 15 15 15 15 15 15 15 16 16 16 16 16 16 17 17
19 19 20 20 21 21 21 21 20 20 21 21 21 20 19 19 19 19 18 18 18 17 17 16 16 15 15 14 14 14 14 14 14 14 14 14 14 15 15 15 15 15 16 16 16 16 16 16 17
19 19 20 20 21 21 21 20 20 21 21 21 20 20 20 19 19 19 18 18 17 17 16 16 15 15 14 14 14 14 14 14 14 14 14 14 14 14 14 14 15 15 15 15 16 16 16 16 16
19 19 19 20 21 21 20 20 20 21 21 21 20 20 20 19 19 19 18 18 17 17 16 16 15 15 14 14 14 14 14 14 14 14 14 13 14 14 14 14 14 15 15 15 15 15 16 16 16
19 19 19 20 20 20 20 20 19 21 21 20 20 20 20 19 19 19 18 18 17 17 16 16 15 15 14 14 14 13 13 13 13 13 13 13 13 13 13 14 14 14 14 15 15 15 15 15 16
19 19 19 20 20 20 20 20 20 21 20 20 20 20 19 19 19 19 18 18 17 17 16 15 15 14 14 14 14 13 13 13 13 13 13 13 13 13 13 13 14 14 14 14 14 15 15 15 15
18 19 19 20 20 19 20 19 20 20 20 19 20 20 19 19 19 19 18 18 17 17 16 15 15 14 14 14 13 13 13 13 13 13 13 13 13 13 13 13 13 13 14 14 14 14 14 15 15
18 18 19 20 20 19 19 18 19 19 19 19 20 20 19 19 19 19 18 18 17 16 16 15 15 14 14 13 13 13 13 13 13 13 12 13 13 13 13 13 13 13 13 14 14 14 14 14 15
19 19 20 20 20 19 18 18 19 19 18 18 19 19 19 19 19 18 18 17 17 16 16 15 14 14 14 13 13 13 13 12 12 12 12 12 12 12 12 12 13 13 13 13 13 13 14 14 14
19 19 20 20 20 19 18 18 18 18 18 19 19 19 20 19 19 18 18 17 17 16 16 15 14 14 13 13 13 13 12 12 12 12 12 12 12 12 12 12 12 12 13 13 13 13 13 14 14
19 19 20 20 20 19 19 19 18 18 18 19 19 20 20 20 19 18 18 17 17 16 15 15 14 14 13 13 13 12 12 12 12 12 12 12 12 12 12 12 12 12 12 12 13 13 13 13 13
19 20 20 20 19 18 19 17 18 17 18 17 18 19 20 20 19 18 18 17 17 16 15 15 14 13 13 13 13 12 12 12 12 12 12 12 12 12 12 12 12 12 12 12 12 12 13 13 13
20 20 19 19 19 17 17 17 17 17 18 17 17 19 20 20 19 19 18 17 17 16 15 15 14 14 13 13 13 12 12 12 12 11 12 11 11 11 11 12 12 12 12 12 12 12 12 12 13
19 18 17 15 16 17 18 17 17 16 17 17 17 19 20 20 19 19 18 17 16 16 15 15 14 14 13 13 13 12 12 12 12 12 11 11 11 11 11 12 12 11 11 11 12 12 12 12 12
19 18 17 18 16 16 17 17 16 17 17 17 18 19 20 20 19 19 18 17 17 16 15 15 14 14 14 13 13 12 12 12 12 12 11 11 11 11 11 11 11 11 11 11 11 12 12 12 12
19 18 17 18 17 16 17 16 16 17 18 18 19 20 20 20 19 19 18 17 17 16 15 15 15 14 14 13 13 13 13 12 12 12 12 11 11 11 11 11 11 11 11 11 11 11 12 12 12
18 17 17 16 16 17 16 16 17 18 18 18 18 19 20 20 19 19 18 18 17 16 16 15 15 14 14 14 13 13 13 13 12 12 12 11 11 11 11 11 11 11 11 11 11 11 12 12 12
18 15 14 15 16 17 17 17 16 18 18 18 17 18 20 20 19 19 18 18 17 16 16 15 15 14 14 14 14 13 13 13 12 12 12 12 12 11 11 11 11 11 11 11 11 11 11 11 12
18 17 14 13 14 15 16 16 17 17 17 16 17 19 20 20 20 19 18 18 17 16 16 15 15 15 14 14 14 14 13 13 13 12 12 12 12 12 12 11 11 11 11 11 11 11 11 11 11
19 17 15 16 16 14 14 15 17 16 16 17 19 20 20 20 20 19 19 18 17 17 16 16 15 15 15 14 14 14 14 13 13 13 13 12 12 12 12 12 12 11 11 11 11 11 11 11 11
Wind_Speed
4 6 3 2 3 2 2 3 1 2 2 3 5 6 6 5 2 1 2 1 2 3 4 5 6 6 5 5 4 4 4 4 4 4 5 5 5 5 5 5 4 4 4 3 3 3 3 2 3
6 4 3 3 3 1 3 3 2 1 3 3 4 5 5 4 2 1 2 1 3 3 3 3 4 3 3 3 3 3 4 5 5 5 5 5 5 5 6 6 5 5 4 4 3 3 2 2 1
6 3 2 2 1 2 2 1 0 2 4 3 4 4 4 2 2 0 1 1 3 3 2 1 1 0 1 1 3 4 5 5 5 5 6 6 6 6 7 7 6 6 5 5 4 4 3 2 1
4 3 3 2 1 2 2 2 1 2 4 4 4 4 3 3 1 1 2 4 4 3 3 2 2 2 2 3 4 4 5 6 6 6 7 7 7 7 7 7 7 7 7 7 6 5 4 4 3
3 3 2 1 2 2 2 2 2 1 2 3 3 4 2 3 2 4 4 4 4 3 3 3 3 3 3 4 4 5 6 7 7 8 9 9 8 9 9 8 9 9 9 8 7 7 6 5 5
3 3 3 1 3 2 2 0 1 3 3 3 4 4 1 1 2 3 4 4 3 3 3 4 5 5 4 4 5 5 6 7 8 8 8 8 8 8 8 9 9 10 10 9 9 8 8 7 6
3 3 2 2 2 2 1 2 3 4 3 3 5 5 1 1 2 3 4 4 4 3 3 4 5 6 6 6 6 7 7 8 8 9 9 9 9 8 8 8 9 10 10 9 9 9 9 8 7
4 3 1 1 2 3 1 2 2 3 3 3 5 6 5 4 5 5 4 4 3 2 2 3 4 5 6 6 7 8 8 9 9 9 9 9 8 8 8 8 9 9 9 9 9 9 10 9 9
3 3 2 4 4 3 1 2 2 2 5 3 2 4 4 8 8 6 3 2 1 1 1 2 3 4 5 5 6 8 8 9 9 9 9 8 7 7 7 8 10 10 9 8 8 9 10 10 9
3 3 5 3 4 3 2 3 5 4 3 2 3 3 6 8 8 7 5 4 2 1 0 1 2 2 4 4 5 6 7 7 7 7 7 7 6 6 6 8 9 8 7 7 7 7 8 7 5
4 5 3 2 3 2 2 3 4 7 4 6 7 8 8 7 7 7 6 5 4 2 1 1 1 2 3 3 4 4 5 6 7 7 7 6 5 5 5 5 6 7 6 5 5 4 3 3 3
2 3 2 2 1 2 3 5 4 6 6 6 10 11 9 9 9 8 7 5 4 3 3 2 1 1 2 3 3 3 3 4 4 6 6 4 2 3 3 3 4 4 3 3 3 2 3 3 4
3 2 1 2 2 2 2 3 4 5 3 7 9 9 9 9 8 6 6 5 4 4 3 2 1 1 2 2 3 3 3 3 5 5 5 4 2 3 3 2 3 3 3 2 2 2 2 3 3
4 1 2 2 1 1 3 1 2 5 5 8 9 9 9 9 8 6 5 6 6 5 4 2 1 1 2 2 2 2 3 4 5 4 5 5 3 2 2 3 3 3 3 3 2 2 2 3 3
2 2 2 2 2 1 3 3 6 5 8 9 9 8 8 8 7 7 7 7 6 5 3 2 2 0 2 2 3 3 3 4 3 4 6 6 4 3 2 2 3 3 4 3 2 1 2 2 3
3 2 2 3 3 3 4 7 5 6 10 9 8 7 7 7 7 7 7 6 5 4 2 1 0 1 2 2 3 3 3 3 3 4 5 6 6 4 2 2 3 4 3 2 1 1 1 2 2
2 1 4 4 4 3 5 7 3 5 10 9 8 8 7 6 6 6 6 6 5 4 3 1 1 1 1 2 3 3 3 3 3 4 5 6 6 5 3 2 3 3 2 2 1 0 1 2 2
5 5 4 5 4 5 6 9 6 5 9 9 8 7 7 8 8 6 6 5 4 3 2 1 1 1 2 2 3 3 3 3 3 4 5 6 6 5 3 2 3 2 2 2 1 1 1 2 2
6 5 5 6 4 6 8 10 9 5 8 9 8 8 8 8 5 5 5 5 4 3 2 2 1 1 1 1 2 2 3 3 3 4 6 6 7 6 3 3 3 2 2 2 2 1 1 1 1
5 4 5 4 2 5 5 8 8 6 9 9 10 10 9 6 5 5 5 5 4 4 3 2 3 2 1 1 1 1 2 3 3 3 5 6 6 6 4 3 3 2 2 2 2 1 1 1 0
5 7 6 4 2 2 1 7 6 3 4 5 6 7 7 8 9 7 7 6 5 5 5 4 4 3 2 1 1 2 2 3 4 4 4 5 6 5 4 3 2 2 1 1 2 1 0 1 1
6 7 5 4 3 2 0 4 7 4 3 5 7 7 8 7 7 7 8 7 7 6 5 5 5 4 3 1 0 0 1 2 3 3 4 6 5 5 5 4 3 2 1 2 2 1 1 1 1
4 3 4 3 3 2 1 2 8 3 5 8 8 8 8 8 9 9 9 9 7 6 5 5 4 4 3 2 1 1 1 2 3 3 5 5 5 5 5 4 3 3 2 2 2 2 1 1 1
5 7 7 6 5 2 4 5 7 5 7 6 6 8 9 9 8 8 7 6 5 4 4 4 4 5 4 3 2 2 3 3 4 4 5 5 4 4 6 4 4 3 2 3 3 2 1 1 1
5 6 4 4 3 5 3 4 9 7 7 7 8 9 9 9 8 8 8 7 7 7 6 5 5 5 4 3 3 3 3 3 3 4 4 4 4 4 5 5 4 3 3 3 2 2 2 1 1
5 8 7 5 5 5 2 6 8 6 4 4 5 6 7 8 8 9 9 9 8 8 7 6 6 6 5 4 4 3 3 3 3 3 3 4 3 4 5 5 5 4 4 3 2 2 2 1 2
7 4 6 6 2 2 6 7 8 2 0 2 4 5 8 9 9 9 9 8 8 8 8 8 7 7 6 5 4 4 3 3 3 3 3 3 3 4 5 5 5 4 4 3 2 1 2 2 2
5 9 6 5 4 3 7 6 5 7 7 5 6 8 9 7 7 8 8 8 8 8 7 6 7 7 6 5 4 4 4 3 3 3 3 4 4 4 5 5 5 4 4 4 2 2 2 2 2
5 5 6 5 5 5 4 8 7 8 9 9 10 9 9 9 9 8 8 7 7 6 6 6 6 6 6 5 5 4 4 3 3 3 4 4 4 4 4 4 4 4 4 4 3 3 3 3 3
6 8 8 5 4 5 4 8 7 8 8 8 9 8 7 8 7 7 7 6 5 6 6 6 6 6 6 5 4 5 4 3 3 4 4 4 4 4 4 4 4 4 4 4 3 4 3 3 3
Wind_Direction
188 114 85 56 55 40 299 296 313 356 47 49 51 73 85 76 75 120 291 295 160 153 170 187 195 190 178 174 178 178 185 192 193 193 193 187 189 190 184 180 182 180 174 168 155 139 126 106 92
126 102 59 48 75 45 292 307 350 350 131 130 59 64 73 71 67 69 343 36 112 134 157 190 199 193 191 198 212 216 227 227 225 223 225 219 217 218 211 204 203 204 202 200 196 186 171 155 123
118 74 74 69 112 190 251 301 301 53 97 96 72 52 72 55 46 53 288 122 95 97 115 159 135 69 285 268 269 268 267 263 259 251 249 243 235 232 230 223 218 219 220 221 219 212 205 203 207
113 74 62 80 233 232 241 256 157 116 90 67 95 72 58 15 331 163 116 108 98 70 65 50 52 24 346 324 311 312 307 299 289 280 270 263 256 249 245 239 233 231 229 228 227 223 222 225 233
76 95 78 344 276 271 258 258 218 155 90 81 101 100 65 358 49 101 108 101 97 74 56 39 36 21 2 348 335 324 321 311 305 298 289 282 273 265 259 254 249 245 241 235 231 230 233 235 241
79 86 100 229 274 299 303 273 130 101 96 109 110 114 127 26 84 109 109 93 81 72 42 29 23 18 5 350 346 338 331 327 321 311 302 298 290 279 274 270 266 261 254 248 240 236 238 241 243
119 107 169 209 247 278 231 149 137 127 125 143 133 122 155 219 165 116 98 89 69 60 45 21 14 8 2 355 347 343 337 335 332 329 321 317 315 303 290 282 278 274 267 262 255 247 244 243 244
133 111 115 233 221 249 219 127 125 131 134 120 130 145 186 197 149 112 91 76 58 45 30 14 12 9 2 355 354 355 349 348 346 342 336 335 332 326 316 305 287 279 274 269 265 259 253 250 249
109 93 212 219 198 230 187 139 106 93 112 98 122 169 170 139 128 116 98 55 38 39 16 12 6 4 1 356 3 1 357 353 349 345 341 342 343 336 325 317 301 287 279 277 276 272 265 257 253
119 161 226 211 183 197 191 169 156 117 108 106 84 91 117 130 140 149 164 183 192 201 274 360 351 355 5 4 1 356 353 347 345 341 337 336 335 329 326 322 316 310 299 287 283 277 272 266 258
172 192 223 229 196 177 167 164 154 143 185 193 176 163 148 150 160 174 188 191 196 204 234 280 292 347 5 351 345 348 347 344 341 341 338 335 335 332 331 324 323 322 316 309 290 268 266 259 246
186 233 200 223 173 169 177 160 162 187 215 192 173 163 161 168 180 189 194 194 195 199 229 250 295 345 348 346 340 343 344 341 339 336 340 343 339 330 326 321 314 311 308 296 279 257 240 241 235
193 250 253 242 234 188 157 181 193 222 201 146 150 158 171 179 188 198 193 190 193 207 227 241 295 333 344 355 341 358 346 342 340 344 348 343 322 316 319 318 318 313 308 287 265 252 245 241 240
186 184 295 299 287 149 156 208 187 233 151 147 161 177 185 186 188 184 188 196 202 213 222 216 227 323 15 3 344 339 344 345 352 353 352 350 335 317 319 316 312 307 304 287 261 252 247 245 244
111 95 331 263 193 172 126 256 228 207 155 167 183 188 189 197 191 194 198 198 202 209 213 208 209 58 27 358 348 355 346 352 354 349 351 355 353 337 324 320 316 309 311 300 285 264 249 253 248
80 67 295 270 171 165 154 255 255 177 166 186 196 197 198 208 207 208 202 197 194 189 189 229 148 71 15 355 350 346 349 356 352 352 354 358 356 347 334 322 313 314 320 312 280 247 257 256 253
52 193 246 277 199 164 182 246 274 177 178 195 203 206 205 212 213 210 198 190 182 177 172 168 59 31 350 348 352 348 353 360 356 2 2 357 355 355 343 313 307 321 321 321 301 251 237 258 265
196 205 231 245 214 172 208 250 264 189 191 206 209 210 210 212 216 201 186 176 162 151 149 152 65 358 345 352 356 355 360 357 3 5 359 355 354 353 350 324 323 330 333 333 323 280 254 247 261
176 189 227 247 203 180 225 254 267 208 202 213 216 215 219 223 223 187 169 156 144 144 155 171 197 281 344 360 350 346 337 331 340 344 350 354 355 355 355 348 342 348 345 324 317 284 266 269 258
165 198 239 270 199 190 246 271 273 218 210 210 210 213 215 205 188 177 169 163 171 180 192 202 226 250 263 268 267 263 285 298 298 313 336 350 354 353 357 354 345 347 350 350 351 359 313 283 219
191 201 212 213 76 66 344 308 293 280 220 205 200 201 198 196 193 188 182 187 189 202 208 210 225 239 253 278 359 4 360 346 344 338 336 335 341 345 348 344 344 341 349 326 305 296 116 281 290
221 221 189 157 116 288 94 281 290 293 253 217 205 196 197 197 190 190 191 196 205 215 216 219 229 242 252 251 47 24 350 312 292 299 306 319 334 340 343 342 345 341 331 318 307 318 227 208 276
194 75 110 100 130 3 346 195 286 307 251 241 221 210 206 200 194 196 199 203 210 213 214 221 234 249 254 247 232 242 283 275 295 308 320 330 332 335 342 341 344 341 330 318 317 321 284 213 215
120 73 59 53 72 310 237 181 278 240 225 235 216 208 205 199 199 205 206 202 216 220 221 222 233 253 256 254 252 243 268 293 316 325 329 329 327 330 342 342 343 333 324 314 309 303 289 259 239
97 93 37 355 2 255 260 205 251 262 242 223 210 205 201 196 194 199 202 206 216 221 224 224 231 252 261 257 260 255 261 272 283 297 307 317 323 321 328 339 334 331 322 312 307 303 299 280 257
155 139 158 204 233 280 297 237 257 268 274 229 204 193 189 195 198 203 207 208 215 222 224 224 231 248 258 256 263 266 262 260 268 278 285 297 295 295 311 327 330 328 329 330 331 319 300 293 278
132 153 156 132 167 281 285 286 301 235 167 150 163 175 197 206 206 210 212 212 218 224 225 222 228 243 254 253 259 268 266 262 271 284 290 295 299 303 324 333 339 340 342 340 342 329 313 309 291
137 139 107 120 155 263 296 284 256 242 228 218 209 211 220 216 212 214 215 217 221 226 230 227 225 236 248 250 251 256 260 263 270 287 302 306 310 316 328 338 342 341 340 342 347 328 319 327 306
120 105 107 112 146 159 271 278 234 228 216 213 221 221 219 214 212 212 215 217 220 225 228 229 230 235 245 247 250 260 269 273 275 278 287 295 302 314 322 326 332 335 334 335 338 323 322 325 316
172 167 149 154 199 172 186 269 271 249 231 216 223 227 220 214 211 210 211 209 215 224 228 229 231 233 240 242 246 255 264 271 275 279 286 290 295 303 307 315 320 324 325 326 322 317 320 313 308
Height
1519 1520 1521 1522 1524 1529 1530 1523 1519 1518 1518 1518 1517 1517 1519 1523 1526 1530 1526 1524 1525 1525 1527 1527 1528 1530 1530 1531 1531 1532 1532 1533 1533 1533 1533 1533 1533 1533 1533 1532 1532 1532 1532 1532 1532 1532 1532 1532 1532
1520 1521 1522 1523 1528 1536 1531 1521 1519 1518 1518 1519 1519 1520 1521 1523 1524 1525 1525 1525 1525 1526 1527 1528 1529 1529 1530 1530 1531 1531 1531 1531 1532 1532 1532 1532 1532 1532 1532 1531 1531 1531 1531 1531 1531 1531 1531 1531 1531
1520 1521 1523 1525 1529 1534 1528 1520 1519 1518 1518 1519 1520 1521 1523 1524 1525 1525 1526 1526 1526 1527 1528 1528 1528 1529 1529 1529 1529 1529 1530 1530 1530 1530 1530 1530 1530 1530 1530 1530 1530 1530 1530 1530 1530 1531 1531 1531 1531
1520 1523 1524 1528 1529 1525 1522 1519 1518 1518 1519 1519 1521 1523 1524 1525 1526 1526 1526 1527 1527 1528 1528 1528 1528 1528 1528 1528 1528 1528 1528 1528 1528 1528 1528 1528 1528 1528 1528 1528 1529 1529 1529 1529 1529 1529 1530 1530 1530
1520 1521 1526 1530 1526 1521 1519 1518 1518 1518 1519 1521 1521 1523 1525 1526 1526 1526 1527 1527 1528 1528 1528 1528 1528 1528 1527 1527 1527 1526 1525 1525 1525 1526 1525 1526 1526 1526 1526 1526 1527 1527 1527 1527 1528 1528 1528 1529 1529
1520 1521 1530 1532 1526 1520 1519 1518 1519 1519 1520 1521 1522 1524 1526 1527 1527 1527 1528 1528 1528 1529 1529 1529 1528 1528 1527 1526 1526 1525 1524 1523 1523 1523 1522 1523 1523 1523 1523 1524 1524 1524 1525 1525 1526 1526 1527 1527 1528
1521 1523 1528 1527 1526 1522 1519 1518 1519 1519 1520 1522 1522 1524 1526 1527 1527 1528 1528 1529 1529 1529 1529 1528 1528 1527 1526 1525 1524 1523 1522 1521 1521 1520 1520 1520 1520 1520 1520 1521 1521 1521 1522 1523 1524 1524 1525 1526 1526
1519 1522 1526 1527 1525 1522 1518 1518 1519 1519 1521 1522 1522 1523 1525 1526 1527 1528 1528 1529 1529 1529 1528 1528 1527 1526 1525 1523 1522 1521 1520 1519 1518 1518 1517 1517 1516 1516 1517 1518 1518 1519 1519 1520 1521 1522 1522 1523 1524
1518 1525 1528 1524 1522 1520 1517 1518 1519 1519 1520 1521 1522 1523 1524 1525 1526 1528 1528 1529 1529 1528 1528 1527 1526 1525 1523 1522 1520 1519 1518 1517 1516 1516 1515 1515 1514 1514 1514 1514 1515 1516 1517 1517 1518 1519 1520 1521 1522
1517 1524 1521 1516 1516 1516 1516 1517 1518 1519 1520 1521 1522 1523 1524 1525 1526 1527 1528 1528 1528 1528 1528 1527 1525 1524 1522 1521 1519 1518 1517 1516 1515 1514 1513 1513 1512 1512 1512 1512 1512 1513 1513 1514 1515 1516 1517 1518 1519
1515 1517 1514 1514 1514 1515 1515 1516 1517 1518 1520 1519 1520 1522 1523 1525 1526 1527 1527 1528 1528 1528 1527 1526 1525 1523 1521 1520 1518 1516 1515 1514 1513 1512 1512 1511 1510 1510 1509 1509 1509 1510 1510 1511 1512 1514 1514 1516 1517
1514 1513 1513 1513 1513 1514 1514 1515 1516 1516 1517 1517 1519 1521 1522 1524 1525 1526 1527 1527 1528 1527 1527 1526 1524 1523 1521 1519 1517 1515 1514 1512 1511 1511 1510 1509 1509 1508 1508 1507 1507 1507 1508 1508 1509 1510 1512 1513 1514
1513 1512 1512 1512 1512 1513 1514 1514 1515 1515 1515 1517 1519 1521 1522 1523 1524 1526 1527 1527 1527 1527 1526 1525 1524 1522 1520 1518 1516 1514 1512 1511 1510 1509 1508 1507 1507 1506 1506 1506 1505 1505 1505 1506 1507 1507 1508 1510 1511
1511 1511 1512 1512 1512 1512 1513 1514 1515 1513 1514 1516 1518 1519 1521 1522 1524 1525 1526 1526 1526 1526 1526 1524 1523 1521 1519 1517 1515 1513 1512 1510 1509 1508 1507 1506 1505 1504 1504 1504 1503 1503 1503 1504 1504 1504 1505 1507 1508
1511 1513 1513 1512 1511 1512 1514 1516 1512 1511 1513 1515 1517 1519 1520 1522 1523 1524 1525 1525 1526 1525 1525 1524 1522 1521 1518 1516 1514 1513 1511 1509 1508 1507 1506 1504 1503 1503 1502 1502 1501 1501 1501 1501 1502 1502 1503 1504 1505
1513 1516 1519 1512 1510 1511 1516 1519 1509 1510 1512 1514 1516 1517 1519 1520 1522 1523 1524 1525 1525 1525 1524 1523 1522 1520 1518 1516 1514 1512 1510 1508 1507 1506 1504 1503 1502 1501 1500 1500 1499 1499 1499 1499 1499 1499 1500 1501 1502
1518 1523 1521 1514 1509 1510 1514 1515 1509 1509 1511 1512 1514 1516 1517 1519 1520 1522 1523 1524 1524 1524 1523 1522 1521 1519 1517 1515 1513 1511 1509 1508 1506 1505 1503 1502 1501 1499 1498 1498 1497 1497 1497 1497 1497 1497 1497 1498 1499
1522 1522 1519 1516 1509 1511 1514 1512 1507 1508 1510 1511 1512 1514 1516 1517 1518 1520 1521 1522 1523 1523 1522 1521 1520 1518 1516 1514 1512 1510 1509 1507 1505 1504 1502 1501 1500 1498 1497 1496 1495 1495 1495 1495 1495 1495 1495 1496 1496
1511 1515 1516 1511 1505 1510 1512 1510 1506 1507 1508 1509 1510 1512 1513 1515 1517 1519 1520 1521 1522 1522 1521 1520 1519 1517 1515 1513 1511 1510 1508 1506 1505 1503 1501 1500 1498 1497 1496 1495 1494 1493 1493 1493 1493 1493 1493 1494 1494
1510 1514 1514 1509 1505 1509 1511 1510 1505 1504 1504 1504 1506 1509 1511 1513 1515 1516 1518 1519 1520 1521 1520 1519 1518 1516 1515 1513 1511 1509 1507 1506 1504 1503 1501 1499 1498 1496 1495 1494 1493 1492 1491 1491 1491 1491 1491 1492 1492
1510 1512 1510 1510 1508 1509 1512 1513 1506 1502 1501 1503 1504 1506 1509 1511 1512 1515 1516 1518 1519 1520 1519 1518 1517 1516 1514 1512 1511 1509 1507 1506 1504 1502 1500 1499 1497 1495 1494 1493 1492 1491 1490 1490 1489 1489 1490 1490 1490
1510 1502 1503 1507 1515 1522 1517 1530 1512 1505 1502 1501 1502 1504 1506 1509 1511 1513 1515 1517 1518 1518 1518 1517 1516 1515 1514 1512 1511 1509 1507 1505 1503 1502 1500 1498 1496 1495 1493 1492 1491 1490 1489 1488 1488 1488 1488 1488 1489
1501 1500 1504 1509 1515 1524 1522 1528 1519 1506 1504 1501 1499 1501 1504 1506 1509 1511 1513 1515 1516 1517 1517 1517 1516 1515 1513 1512 1510 1509 1507 1505 1503 1501 1500 1498 1496 1494 1493 1491 1490 1489 1488 1487 1487 1487 1487 1487 1487
1500 1505 1512 1519 1525 1534 1523 1529 1523 1510 1502 1497 1496 1498 1501 1504 1507 1510 1512 1514 1515 1516 1516 1515 1515 1514 1513 1511 1510 1508 1507 1505 1503 1501 1499 1497 1496 1494 1492 1491 1489 1488 1487 1486 1486 1486 1486 1485 1486
1502 1515 1532 1533 1541 1537 1522 1524 1518 1500 1496 1494 1493 1495 1498 1502 1505 1508 1510 1512 1513 1514 1514 1514 1514 1513 1512 1511 1509 1508 1506 1504 1503 1501 1499 1497 1495 1493 1492 1490 1488 1487 1486 1485 1485 1485 1484 1484 1484
1504 1511 1531 1539 1542 1535 1522 1524 1509 1495 1492 1491 1492 1494 1497 1500 1503 1505 1508 1510 1511 1512 1513 1513 1513 1512 1511 1510 1509 1507 1506 1504 1502 1500 1498 1496 1494 1493 1491 1489 1488 1486 1485 1484 1484 1483 1483 1483 1482
1506 1511 1513 1528 1531 1535 1528 1517 1501 1492 1491 1491 1492 1493 1495 1498 1501 1503 1506 1508 1509 1510 1511 1511 1511 1511 1510 1509 1508 1506 1505 1503 1501 1500 1498 1496 1494 1492 1491 1489 1487 1485 1484 1483 1483 1482 1481 1481 1481
1499 1508 1520 1529 1537 1540 1530 1521 1512 1496 1492 1491 1491 1492 1494 1497 1499 1501 1504 1506 1507 1509 1509 1510 1510 1509 1509 1508 1507 1505 1504 1502 1501 1499 1497 1496 1494 1492 1490 1488 1486 1485 1484 1482 1481 1480 1480 1479 1479
1504 1509 1518 1529 1531 1540 1539 1525 1496 1491 1488 1489 1489 1490 1492 1494 1497 1499 1501 1503 1505 1507 1507 1508 1508 1508 1507 1507 1506 1504 1503 1502 1500 1498 1497 1495 1493 1491 1489 1488 1486 1484 1483 1481 1480 1479 1478 1477 1477
1494 1501 1511 1522 1527 1533 1536 1523 1487 1486 1485 1485 1486 1488 1490 1492 1495 1497 1499 1501 1503 1504 1505 1506 1506 1506 1506 1505 1504 1503 1502 1501 1499 1498 1496 1494 1493 1491 1489 1487 1485 1484 1482 1481 1479 1478 1477 1476 1475